When you browse on this site, cookies collect data to enhance your experience and personalize the content and advertising you see.
Visit our Privacy Policy to learn more. By continuing to use the site, you agree to this use of cookies and data.
  • în România
  • Lista ţărilor
  • Pe 7 zile
  • Temperatura apei
  • Meteo pe hartă
  • Widget-uri
  • user-avatar
    Intrare

    Meteo pe oră la Siguiri

    Astăzi, 6 Decembrie, Vineri

    Timp Temperatura Precipitaţii Vânt Presiune Umiditate
    00:00 +23°C° 0 mm 1 m/s 715 mmHg 25%
    01:00 +22°C° 0 mm 1 m/s 715 mmHg 25%
    02:00 +22°C° 0 mm 1 m/s 715 mmHg 25%
    03:00 +21°C° 0 mm 1 m/s 715 mmHg 25%
    04:00 +20°C° 0 mm 1 m/s 715 mmHg 25%
    05:00 +20°C° 0 mm 1 m/s 715 mmHg 26%
    06:00 +20°C° 0 mm 1 m/s 715 mmHg 27%
    07:00 +20°C° 0 mm 1 m/s 716 mmHg 27%
    08:00 +21°C° 0 mm 2 m/s 716 mmHg 24%
    09:00 +25°C° 0 mm 2 m/s 717 mmHg 20%
    10:00 +28°C° 0 mm 3 m/s 717 mmHg 16%
    11:00 +30°C° 0 mm 3 m/s 717 mmHg 15%
    12:00 +31°C° 0 mm 3 m/s 716 mmHg 14%
    13:00 +34°C° 0 mm 3 m/s 716 mmHg 13%
    14:00 +34°C° 0 mm 3 m/s 715 mmHg 13%
    15:00 +34°C° 0 mm 3 m/s 715 mmHg 13%
    16:00 +34°C° 0 mm 3 m/s 714 mmHg 12%
    17:00 +31°C° 0 mm 3 m/s 714 mmHg 14%
    18:00 +29°C° 0 mm 2 m/s 714 mmHg 16%
    19:00 +26°C° 0 mm 2 m/s 714 mmHg 18%
    20:00 +25°C° 0 mm 2 m/s 715 mmHg 18%
    21:00 +25°C° 0 mm 2 m/s 715 mmHg 18%
    22:00 +24°C° 0 mm 2 m/s 716 mmHg 19%
    23:00 +23°C° 0 mm 2 m/s 716 mmHg 19%

    Mâine, 7 Decembrie, Sâmbătă

    Timp Temperatura Precipitaţii Vânt Presiune Umiditate
    00:00 +23°C° 0 mm 1 m/s 716 mmHg 19%
    01:00 +22°C° 0 mm 1 m/s 715 mmHg 19%
    02:00 +21°C° 0 mm 1 m/s 715 mmHg 19%
    03:00 +21°C° 0 mm 1 m/s 715 mmHg 20%
    04:00 +20°C° 0 mm 1 m/s 715 mmHg 20%
    05:00 +20°C° 0 mm 1 m/s 716 mmHg 21%
    06:00 +20°C° 0 mm 1 m/s 716 mmHg 22%
    07:00 +20°C° 0 mm 1 m/s 716 mmHg 23%
    08:00 +23°C° 0 mm 2 m/s 716 mmHg 20%
    09:00 +26°C° 0 mm 3 m/s 717 mmHg 17%
    10:00 +29°C° 0 mm 3 m/s 717 mmHg 14%
    11:00 +30°C° 0 mm 4 m/s 717 mmHg 13%
    12:00 +33°C° 0 mm 4 m/s 716 mmHg 12%
    13:00 +35°C° 0 mm 4 m/s 716 mmHg 12%
    14:00 +35°C° 0 mm 3 m/s 715 mmHg 12%
    15:00 +35°C° 0 mm 3 m/s 714 mmHg 12%
    16:00 +35°C° 0 mm 2 m/s 714 mmHg 12%
    17:00 +32°C° 0 mm 2 m/s 714 mmHg 15%
    18:00 +29°C° 0 mm 2 m/s 714 mmHg 17%
    19:00 +27°C° 0 mm 2 m/s 714 mmHg 19%
    20:00 +26°C° 0 mm 2 m/s 715 mmHg 19%
    21:00 +25°C° 0 mm 2 m/s 715 mmHg 20%
    22:00 +25°C° 0 mm 1 m/s 715 mmHg 20%
    23:00 +24°C° 0 mm 1 m/s 715 mmHg 21%

    Poimâine, 8 Decembrie, Duminică

    Timp Temperatura Precipitaţii Vânt Presiune Umiditate
    00:00 +23°C° 0 mm 1 m/s 715 mmHg 21%
    01:00 +23°C° 0 mm 1 m/s 715 mmHg 22%
    02:00 +22°C° 0 mm 1 m/s 715 mmHg 22%
    03:00 +21°C° 0 mm 1 m/s 715 mmHg 23%
    04:00 +20°C° 0 mm 1 m/s 715 mmHg 24%
    05:00 +20°C° 0 mm 1 m/s 715 mmHg 24%
    06:00 +20°C° 0 mm 1 m/s 716 mmHg 24%
    07:00 +20°C° 0 mm 1 m/s 716 mmHg 24%
    08:00 +21°C° 0 mm 2 m/s 716 mmHg 21%
    09:00 +25°C° 0 mm 3 m/s 717 mmHg 18%
    10:00 +28°C° 0 mm 4 m/s 717 mmHg 15%
    11:00 +29°C° 0 mm 4 m/s 717 mmHg 14%
    12:00 +32°C° 0 mm 4 m/s 716 mmHg 13%
    13:00 +34°C° 0 mm 4 m/s 716 mmHg 12%
    14:00 +34°C° 0 mm 4 m/s 715 mmHg 12%
    15:00 +34°C° 0 mm 3 m/s 715 mmHg 12%
    16:00 +34°C° 0 mm 3 m/s 714 mmHg 12%
    17:00 +31°C° 0 mm 3 m/s 714 mmHg 14%
    18:00 +28°C° 0 mm 2 m/s 714 mmHg 16%
    19:00 +26°C° 0 mm 2 m/s 715 mmHg 17%
    20:00 +25°C° 0 mm 2 m/s 715 mmHg 17%
    21:00 +24°C° 0 mm 1 m/s 715 mmHg 18%
    22:00 +24°C° 0 mm 1 m/s 716 mmHg 18%
    23:00 +23°C° 0 mm 1 m/s 715 mmHg 18%

    9 Decembrie, Luni

    Timp Temperatura Precipitaţii Vânt Presiune Umiditate
    00:00 +23°C° 0 mm 1 m/s 715 mmHg 18%
    01:00 +22°C° 0 mm 1 m/s 715 mmHg 19%
    02:00 +22°C° 0 mm 1 m/s 715 mmHg 20%
    03:00 +21°C° 0 mm 1 m/s 715 mmHg 21%
    04:00 +20°C° 0 mm 1 m/s 715 mmHg 23%
    05:00 +20°C° 0 mm 1 m/s 715 mmHg 24%
    06:00 +20°C° 0 mm 1 m/s 716 mmHg 25%
    07:00 +20°C° 0 mm 1 m/s 716 mmHg 27%
    08:00 +23°C° 0 mm 2 m/s 717 mmHg 24%
    09:00 +25°C° 0 mm 3 m/s 717 mmHg 21%
    10:00 +27°C° 0 mm 3 m/s 717 mmHg 19%
    11:00 +29°C° 0 mm 3 m/s 717 mmHg 17%
    12:00 +32°C° 0 mm 4 m/s 716 mmHg 16%
    13:00 +33°C° 0 mm 4 m/s 716 mmHg 14%
    14:00 +33°C° 0 mm 4 m/s 715 mmHg 14%
    15:00 +33°C° 0 mm 4 m/s 715 mmHg 14%
    16:00 +34°C° 0 mm 4 m/s 714 mmHg 13%
    17:00 +30°C° 0 mm 3 m/s 714 mmHg 16%
    18:00 +28°C° 0 mm 2 m/s 714 mmHg 18%
    19:00 +25°C° 0 mm 1 m/s 714 mmHg 20%
    20:00 +25°C° 0 mm 1 m/s 715 mmHg 21%
    21:00 +24°C° 0 mm 1 m/s 715 mmHg 21%
    22:00 +23°C° 0 mm 1 m/s 716 mmHg 22%
    23:00 +22°C° 0 mm 1 m/s 716 mmHg 22%

    10 Decembrie, Marţi

    Timp Temperatura Precipitaţii Vânt Presiune Umiditate
    00:00 +22°C° 0 mm 1 m/s 715 mmHg 23%
    01:00 +21°C° 0 mm 1 m/s 715 mmHg 23%
    02:00 +21°C° 0 mm 1 m/s 715 mmHg 23%
    03:00 +20°C° 0 mm 1 m/s 715 mmHg 22%
    04:00 +19°C° 0 mm 1 m/s 714 mmHg 22%
    05:00 +19°C° 0 mm 1 m/s 715 mmHg 23%
    06:00 +19°C° 0 mm 1 m/s 715 mmHg 23%
    07:00 +19°C° 0 mm 1 m/s 715 mmHg 24%
    08:00 +21°C° 0 mm 2 m/s 716 mmHg 20%
    09:00 +25°C° 0 mm 2 m/s 716 mmHg 16%
    10:00 +28°C° 0 mm 3 m/s 717 mmHg 13%
    11:00 +29°C° 0 mm 3 m/s 716 mmHg 12%
    12:00 +31°C° 0 mm 3 m/s 716 mmHg 11%
    13:00 +34°C° 0 mm 3 m/s 715 mmHg 10%
    14:00 +34°C° 0 mm 3 m/s 715 mmHg 10%
    15:00 +34°C° 0 mm 3 m/s 714 mmHg 10%
    16:00 +34°C° 0 mm 2 m/s 713 mmHg 10%
    17:00 +31°C° 0 mm 2 m/s 713 mmHg 12%
    18:00 +28°C° 0 mm 2 m/s 713 mmHg 14%
    19:00 +25°C° 0 mm 2 m/s 714 mmHg 15%
    20:00 +25°C° 0 mm 1 m/s 714 mmHg 16%
    21:00 +24°C° 0 mm 1 m/s 715 mmHg 16%
    22:00 +23°C° 0 mm 1 m/s 715 mmHg 16%
    23:00 +23°C° 0 mm 1 m/s 715 mmHg 17%

    11 Decembrie, Miercuri

    Timp Temperatura Precipitaţii Vânt Presiune Umiditate
    00:00 +22°C° 0 mm 1 m/s 715 mmHg 17%
    01:00 +22°C° 0 mm 1 m/s 715 mmHg 17%
    02:00 +21°C° 0 mm 1 m/s 714 mmHg 17%
    03:00 +21°C° 0 mm 1 m/s 714 mmHg 18%
    04:00 +20°C° 0 mm 1 m/s 714 mmHg 18%
    05:00 +20°C° 0 mm 1 m/s 714 mmHg 19%
    06:00 +20°C° 0 mm 1 m/s 715 mmHg 20%
    07:00 +19°C° 0 mm 1 m/s 715 mmHg 20%
    08:00 +23°C° 0 mm 1 m/s 715 mmHg 18%
    09:00 +26°C° 0 mm 2 m/s 716 mmHg 15%
    10:00 +29°C° 0 mm 3 m/s 716 mmHg 12%
    11:00 +31°C° 0 mm 3 m/s 716 mmHg 11%
    12:00 +33°C° 0 mm 3 m/s 715 mmHg 10%
    13:00 +35°C° 0 mm 3 m/s 715 mmHg 9%
    14:00 +35°C° 0 mm 3 m/s 714 mmHg 9%
    15:00 +35°C° 0 mm 3 m/s 714 mmHg 9%
    16:00 +35°C° 0 mm 3 m/s 713 mmHg 9%
    17:00 +31°C° 0 mm 3 m/s 713 mmHg 10%
    18:00 +29°C° 0 mm 3 m/s 713 mmHg 12%
    19:00 +26°C° 0 mm 2 m/s 714 mmHg 13%
    20:00 +25°C° 0 mm 2 m/s 714 mmHg 14%
    21:00 +24°C° 0 mm 2 m/s 715 mmHg 14%
    22:00 +23°C° 0 mm 2 m/s 715 mmHg 15%
    23:00 +23°C° 0 mm 2 m/s 715 mmHg 16%
    Arată mai mult